map of KGWW home
Great Circle Mapper logo
KGWW - Airport
Location
City:  Goldsboro, North Carolina, United States
Name:Wayne Executive Jetport Airport
ICAO:KGWW
FAA LID:GWW

Details
Type:Airport (Airfield)
Use:Public/Civil
Latitude:3527'38"N (35.460556)
Longitude:7757'54"W (-77.964916)
Datum:WGS 1984
Elevation:133 ft (41 m)
Variation:9.57W (WMM2015 magnetic declination)
-0.04 annual change
Runways:1
Longest:5500 × 100 ft (1676 × 30.5 m), paved

Time
Time Zone:UTC-5 (DST-4)
Local Time:

Weather
METAR:KGWW 250330Z AUTO 00000KT 10SM CLR 21/21 A3005 RMK AO2 T02050205

Related Locations
Nearby:
Farthest:MQZ: 11693 mi / 18818 km
Margaret River [Margaret River Airport], WA, AU

Find:

   beyond  
but within

Other Information
Maps:
NOTAMs:
Links:
Sources:

  
flag of United States
flag of North Carolina
  

Sectional Chart

Flight Planning
at skyvector.com

Satellite Image

Google Maps Satellite view

 

Copyright © 2004-2016 Karl L. Swartz. All rights reserved.
The Great Circle Mapper name and logo are trademarks of the Great Circle Mapper.
All other trademarks mentioned herein belong to their respective owners.
Please see credits for attibutions and further copyright information.

  Follow gcmap on Facebook Follow gcmap on Twitter Follow gcmap on Google+ GCmap on LinkedIn

hCard Microformat

Geo Microformat